FDX1425 KMEM-KIAH

Flight info

Callsign FDX1425
Flight time N/A
Altitude 28000
Route CHLDR5 ANSWA LITTR Q33 SWEUP GESNR2
Aircraft B77L/H-SDE1E2E3FGHIJ2J3J4J5M1RWXY/LB1D1

Departure

Time 2026-05-08 00:14
Airport Memphis International Airport (KMEM)

Arrival

Time N/A
Airport George Bush Intercontinental Airport (KIAH)
Time Latitude Longitude Altitude Speed Heading
2026-05-07 23:48 35.06103 -89.96172 293 ft 0 kts
2026-05-07 23:58 35.06086 -89.96173 297 ft 2 kts
2026-05-07 23:58 35.06070 -89.96173 296 ft 2 kts
2026-05-07 23:58 35.06048 -89.96175 297 ft 4 kts
2026-05-07 23:59 35.06021 -89.96176 300 ft 4 kts
2026-05-07 23:59 35.05994 -89.96177 299 ft 4 kts
2026-05-07 23:59 35.05976 -89.96170 299 ft 0 kts 270°
2026-05-08 00:04 35.05976 -89.96180 300 ft 7 kts 268°
2026-05-08 00:05 35.05962 -89.96315 295 ft 20 kts 264°
2026-05-08 00:05 35.05955 -89.96480 295 ft 20 kts 262°
2026-05-08 00:05 35.05919 -89.96638 288 ft 20 kts 273°
2026-05-08 00:05 35.05924 -89.96804 286 ft 20 kts 272°
2026-05-08 00:06 35.05928 -89.96970 286 ft 20 kts 272°
2026-05-08 00:06 35.05933 -89.97156 281 ft 26 kts 272°
2026-05-08 00:06 35.05940 -89.97383 283 ft 27 kts 272°
2026-05-08 00:06 35.05965 -89.97606 278 ft 27 kts 284°
2026-05-08 00:07 35.06009 -89.97833 276 ft 30 kts 275°
2026-05-08 00:07 35.06014 -89.98127 271 ft 36 kts 271°
2026-05-08 00:07 35.06019 -89.98364 268 ft 12 kts 271°
2026-05-08 00:07 35.06018 -89.98473 267 ft 14 kts 258°
2026-05-08 00:08 35.05935 -89.98514 265 ft 14 kts 178°
2026-05-08 00:08 35.05771 -89.98507 263 ft 30 kts 179°
2026-05-08 00:08 35.05563 -89.98507 269 ft 30 kts 180°
2026-05-08 00:08 35.05354 -89.98512 286 ft 30 kts 179°
2026-05-08 00:09 35.05146 -89.98514 304 ft 30 kts 192°
2026-05-08 00:09 35.04952 -89.98604 308 ft 30 kts 191°
2026-05-08 00:09 35.04718 -89.98605 308 ft 41 kts 179°
2026-05-08 00:09 35.04420 -89.98599 306 ft 42 kts 179°
2026-05-08 00:10 35.04142 -89.98595 309 ft 37 kts 179°
2026-05-08 00:10 35.03898 -89.98590 313 ft 33 kts 179°
2026-05-08 00:10 35.03680 -89.98584 319 ft 30 kts 179°
2026-05-08 00:10 35.03498 -89.98581 322 ft 28 kts 179°
2026-05-08 00:11 35.03301 -89.98577 324 ft 28 kts 180°
2026-05-08 00:11 35.03171 -89.98577 323 ft 28 kts 180°
2026-05-08 00:11 35.02974 -89.98568 322 ft 28 kts 179°
2026-05-08 00:11 35.02777 -89.98565 322 ft 28 kts 179°
2026-05-08 00:12 35.02581 -89.98559 326 ft 28 kts 178°
2026-05-08 00:12 35.02471 -89.98555 327 ft 6 kts 179°
2026-05-08 00:12 35.02467 -89.98555 326 ft 0 kts 179°
2026-05-08 00:12 35.02426 -89.98568 330 ft 12 kts 212°
2026-05-08 00:13 35.02406 -89.98663 333 ft 12 kts 279°
2026-05-08 00:13 35.02448 -89.98694 329 ft 6 kts
2026-05-08 00:13 35.02531 -89.98695 328 ft 22 kts 358°
2026-05-08 00:13 35.02891 -89.98704 322 ft 85 kts 359°
2026-05-08 00:14 35.03702 -89.98718 321 ft 147 kts 360°
2026-05-08 00:14 35.04899 -89.98764 364 ft 190 kts 357°
2026-05-08 00:14 35.06268 -89.98769 658 ft 201 kts 356°
2026-05-08 00:14 35.07628 -89.99091 1023 ft 203 kts 329°
2026-05-08 00:15 35.08824 -90.00017 1412 ft 206 kts 330°
2026-05-08 00:15 35.10089 -90.00891 1897 ft 211 kts 331°
2026-05-08 00:15 35.11412 -90.01791 2161 ft 228 kts 331°
2026-05-08 00:15 35.12825 -90.02784 2500 ft 237 kts 324°
2026-05-08 00:16 35.13961 -90.04320 2622 ft 254 kts 296°
2026-05-08 00:16 35.14553 -90.06389 3011 ft 263 kts 278°
2026-05-08 00:16 35.14663 -90.08649 3532 ft 269 kts 271°
2026-05-08 00:16 35.14677 -90.10951 4143 ft 273 kts 271°
2026-05-08 00:17 35.14688 -90.13287 4805 ft 274 kts 266°
2026-05-08 00:17 35.14169 -90.15528 5274 ft 277 kts 243°
2026-05-08 00:17 35.13290 -90.17587 6052 ft 270 kts 246°
2026-05-08 00:17 35.12469 -90.19637 6716 ft 267 kts 247°
2026-05-08 00:18 35.11666 -90.21666 7098 ft 270 kts 247°
2026-05-08 00:18 35.10847 -90.23729 7704 ft 270 kts 247°
2026-05-08 00:18 35.10010 -90.25787 8316 ft 270 kts 247°
2026-05-08 00:18 35.09164 -90.27837 8905 ft 270 kts 247°
2026-05-08 00:19 35.08316 -90.29888 9499 ft 271 kts 247°
2026-05-08 00:19 35.07456 -90.31970 9930 ft 278 kts 248°
2026-05-08 00:19 35.06574 -90.34110 10256 ft 289 kts 247°
2026-05-08 00:19 35.05642 -90.36372 10383 ft 307 kts 247°
2026-05-08 00:20 35.04654 -90.38767 10538 ft 325 kts 247°
2026-05-08 00:20 35.03607 -90.41304 10681 ft 343 kts 247°
2026-05-08 00:20 35.02516 -90.43940 11058 ft 352 kts 246°
2026-05-08 00:20 35.01400 -90.46626 11433 ft 356 kts 246°
2026-05-08 00:21 35.00281 -90.49315 11800 ft 355 kts 246°
2026-05-08 00:21 34.99161 -90.52008 12166 ft 355 kts 246°
2026-05-08 00:21 34.98041 -90.54701 12548 ft 356 kts 246°
2026-05-08 00:21 34.96934 -90.57364 12927 ft 357 kts 246°
2026-05-08 00:22 34.95811 -90.60065 13307 ft 357 kts 246°
2026-05-08 00:22 34.94687 -90.62766 13693 ft 358 kts 246°
2026-05-08 00:22 34.93560 -90.65474 14057 ft 358 kts 246°
2026-05-08 00:22 34.92433 -90.68180 14409 ft 359 kts 246°
2026-05-08 00:23 34.91298 -90.70898 14758 ft 360 kts 246°
2026-05-08 00:23 34.90277 -90.73668 15100 ft 356 kts 256°
2026-05-08 00:23 34.89816 -90.76601 15451 ft 354 kts 263°
2026-05-08 00:23 34.89421 -90.79590 15850 ft 360 kts 262°
2026-05-08 00:24 34.88980 -90.82614 16227 ft 363 kts 261°
2026-05-08 00:24 34.88521 -90.85631 16594 ft 363 kts 261°
2026-05-08 00:24 34.88057 -90.88650 16977 ft 363 kts 261°
2026-05-08 00:24 34.87591 -90.91675 17352 ft 363 kts 261°
2026-05-08 00:25 34.87124 -90.94700 17733 ft 363 kts 261°
2026-05-08 00:25 34.86657 -90.97730 18133 ft 364 kts 261°
2026-05-08 00:25 34.86189 -91.00768 18501 ft 366 kts 261°